Location: ??????????
(44.2167°N, 135.5333°E)
Time: 15:15:02
(UTC+00:00)

Cosmos 2279 Rocket - Pass Details

Date: 15 June 2025
Orbit: 962 x 978 km, 82.9° (Epoch: 15 July)

Event Time Altitude Azimuth Distance (km) Brightness Sun altitude
Rises 15:00:04 0° 355° (N) 3,659 8.5 -22.4°
Reaches altitude 10° 15:02:39 10° 1° (N) 2,709 7.5 -22.4°
Maximum altitude 15:08:42 53° 77° (ENE) 1,172 4.4 -22.4°
Enters shadow 15:11:22 32° 137° (SE) 1,594 4.7 -22.4°
